TimeCST,TemperatureF,Dew PointF,Humidity,Sea Level PressureIn,VisibilityMPH,Wind Direction,Wind SpeedMPH,Gust SpeedMPH,PrecipitationIn,Events,Conditions,WindDirDegrees,DateUTC
12:56 AM,46.0,39.9,79,30.27,10.0,North,10.4,-,N/A,,Clear,360,2013-01-07 06:56:00
1:56 AM,45.0,39.9,82,30.25,10.0,NNE,10.4,-,N/A,,Clear,30,2013-01-07 07:56:00
2:56 AM,44.1,39.0,82,30.27,10.0,NNE,6.9,-,N/A,,Clear,20,2013-01-07 08:56:00
3:56 AM,43.0,39.0,86,30.27,10.0,North,4.6,-,N/A,,Clear,10,2013-01-07 09:56:00
4:56 AM,42.1,39.0,89,30.26,10.0,North,5.8,-,N/A,,Clear,10,2013-01-07 10:56:00
5:56 AM,41.0,37.9,89,30.27,10.0,North,6.9,-,N/A,,Partly Cloudy,10,2013-01-07 11:56:00
6:56 AM,39.0,37.0,93,30.28,10.0,NNE,5.8,-,N/A,,Partly Cloudy,20,2013-01-07 12:56:00
7:56 AM,44.1,39.0,82,30.30,10.0,NE,8.1,-,N/A,,Partly Cloudy,40,2013-01-07 13:56:00
8:56 AM,48.0,39.0,71,30.31,10.0,ENE,13.8,-,N/A,,Partly Cloudy,70,2013-01-07 14:56:00
9:56 AM,51.1,37.9,61,30.31,10.0,ENE,12.7,-,N/A,,Partly Cloudy,70,2013-01-07 15:56:00
10:56 AM,54.0,37.0,53,30.29,10.0,ENE,13.8,-,N/A,,Partly Cloudy,70,2013-01-07 16:56:00
11:56 AM,57.0,36.0,45,30.26,10.0,East,10.4,-,N/A,,Scattered Clouds,80,2013-01-07 17:56:00
12:56 PM,60.1,37.0,42,30.23,10.0,ENE,9.2,-,N/A,,Scattered Clouds,70,2013-01-07 18:56:00
1:56 PM,62.1,37.0,39,30.22,10.0,ENE,8.1,-,N/A,,Scattered Clouds,60,2013-01-07 19:56:00
2:56 PM,62.1,37.9,41,30.22,10.0,East,8.1,-,N/A,,Scattered Clouds,90,2013-01-07 20:56:00
3:56 PM,60.1,39.0,46,30.23,10.0,East,6.9,-,N/A,,Scattered Clouds,80,2013-01-07 21:56:00
4:56 PM,53.1,41.0,64,30.23,10.0,East,5.8,-,N/A,,Mostly Cloudy,90,2013-01-07 22:56:00
5:56 PM,48.9,43.0,80,30.23,10.0,Calm,Calm,-,N/A,,Scattered Clouds,0,2013-01-07 23:56:00
6:56 PM,46.0,43.0,89,30.24,10.0,Calm,Calm,-,N/A,,Scattered Clouds,0,2013-01-08 00:56:00
7:56 PM,48.0,42.1,80,30.25,10.0,ENE,5.8,-,N/A,,Mostly Cloudy,70,2013-01-08 01:56:00
8:56 PM,53.1,41.0,64,30.25,10.0,ENE,10.4,-,N/A,,Mostly Cloudy,70,2013-01-08 02:56:00
9:56 PM,52.0,39.0,61,30.22,10.0,ENE,9.2,-,N/A,,Clear,60,2013-01-08 03:56:00
10:56 PM,51.1,39.9,66,30.21,10.0,ENE,9.2,-,N/A,,Clear,70,2013-01-08 04:56:00
11:56 PM,50.0,42.1,74,30.20,10.0,East,8.1,-,N/A,,Clear,80,2013-01-08 05:56:00